{"data":{"norad_id":39122,"epoch":"2026-05-25T03:42:38.615040Z","epoch_age_seconds":61353,"freshness":"FRESH","line1":"1 39122U 13012A   26145.15461360 -.00000015  00000+0  00000+0 0  9993","line2":"2 39122   0.0151 351.0802 0002669  69.9235 120.5919  1.00271918 48202","mean_motion":1.00271918,"eccentricity":0.0002669,"inclination_deg":0.0151,"raan_deg":351.0802,"arg_perigee_deg":69.9235,"mean_anomaly_deg":120.5919,"bstar":0,"rev_number":4820,"period_min":1436.0949992001,"perigee_km":35775.303919495,"apogee_km":35797.811433513,"semimajor_km":42164.694676504,"source":"CELESTRAK","updated_at":"2026-05-25T13:38:13.941752Z"}}